Wind_Speed
18 17 16 16 16 16 15 12 9 7 7 7 7 7 8 10 12 13 13 13 14 16 16 17 18 18 18 18 18 18 16 15 14 13 13 14 15 16 16 17 18 19 18 19 20 17 14 13 13 11 10 9 8 7 5 4 4 3 3 3 3 3 3 3 3 4 3 3 3 4 5 5 6 6 6 6 6 6 6 6 7 7 7 7 7
20 20 18 17 16 15 12 9 7 6 6 7 7 8 8 10 11 12 13 13 14 16 17 17 18 18 18 18 18 17 16 14 13 12 12 13 14 15 16 16 18 19 18 17 18 18 15 13 13 12 11 9 8 7 5 4 3 3 3 3 3 3 3 3 3 4 4 3 3 3 5 5 6 5 5 5 5 5 5 6 6 7 7 7 7
24 22 19 17 15 12 10 7 6 6 6 6 7 8 9 9 10 12 12 13 15 16 17 17 17 18 18 18 18 17 16 14 13 12 12 13 14 15 15 15 17 18 17 15 16 17 16 14 13 12 11 10 9 7 6 5 4 4 3 3 3 4 3 3 3 4 4 3 3 3 5 6 5 5 5 5 5 5 5 6 6 7 7 6 6
26 22 18 16 13 10 8 7 6 6 6 6 7 8 9 9 10 11 12 14 15 16 17 17 17 18 18 18 17 17 15 13 12 12 12 12 13 15 15 14 15 17 17 15 14 16 16 15 13 12 12 10 9 8 7 6 5 4 4 4 4 4 3 3 3 3 4 3 3 3 5 5 5 4 5 5 5 5 6 6 6 6 6 6 6
21 18 16 14 12 9 7 7 7 7 7 7 7 8 8 9 10 12 13 14 15 16 17 17 18 18 18 18 17 17 15 13 12 12 12 12 14 15 14 13 15 16 16 14 13 15 16 16 14 12 12 11 9 8 7 6 5 5 4 4 4 4 3 3 3 3 3 3 3 3 5 5 4 4 5 5 5 5 5 5 6 6 6 5 5
16 16 14 13 10 8 8 7 7 7 7 7 7 8 8 9 10 12 13 14 15 16 17 17 18 18 18 18 17 17 16 14 13 13 13 13 14 14 13 13 14 16 16 14 13 14 16 16 15 13 12 11 9 8 7 6 5 5 4 4 4 4 3 3 3 2 3 3 3 3 5 5 4 4 4 5 5 5 5 5 5 5 5 5 4
15 15 13 12 10 9 8 8 8 8 7 8 8 8 8 9 10 12 13 15 16 16 17 18 18 19 19 19 18 17 16 15 14 13 13 14 14 13 13 14 15 16 16 15 13 13 14 15 15 13 12 11 10 8 7 6 5 5 4 4 4 3 3 3 3 3 3 3 3 4 4 4 4 4 4 5 4 4 4 4 4 4 5 5 4
15 14 12 11 10 9 9 8 8 8 8 8 8 9 9 10 11 12 14 15 16 16 17 18 19 20 20 19 19 18 17 16 15 14 14 14 14 13 14 16 16 16 16 15 13 13 14 14 15 14 12 11 10 9 8 7 6 5 5 4 4 3 3 3 4 4 2 3 3 3 3 3 3 3 4 4 4 3 3 4 3 3 4 4 4
15 13 13 11 10 10 9 9 9 9 9 9 9 9 10 10 11 13 14 15 16 17 18 18 19 20 21 20 20 19 18 17 17 16 15 15 14 14 15 16 16 17 17 15 14 13 13 13 14 14 12 11 10 9 8 7 6 5 5 4 4 4 3 3 4 3 3 4 3 1 2 2 2 2 3 4 4 4 4 3 3 3 4 4 4
15 13 13 12 11 11 10 10 10 9 9 9 10 10 10 10 11 13 14 15 16 17 18 19 20 21 22 21 21 20 19 18 17 17 16 15 15 16 16 17 17 17 17 15 14 13 13 12 13 14 13 12 10 9 9 8 7 6 5 4 4 3 3 4 3 3 5 5 3 1 2 3 2 2 3 4 4 4 4 4 3 3 4 4 4
14 13 13 12 12 12 12 11 10 10 10 10 10 10 10 11 12 14 15 16 17 18 18 20 21 22 23 22 22 21 20 19 18 17 17 16 16 17 17 17 18 17 16 15 14 13 12 11 12 13 14 13 11 9 9 8 7 6 6 5 4 4 3 3 3 4 5 3 3 3 3 3 2 2 3 3 4 4 4 4 3 3 4 5 5
14 13 12 12 12 12 12 11 11 11 11 11 11 11 11 11 13 15 15 16 17 18 19 20 22 23 24 23 22 22 21 20 19 18 18 18 18 18 18 18 18 18 16 15 14 13 12 11 11 12 13 13 12 10 8 8 7 7 7 6 5 4 3 3 3 4 4 3 3 3 3 3 2 2 2 3 4 4 4 3 3 3 4 4 5
14 13 13 13 13 13 12 12 11 11 11 11 11 11 11 13 14 15 16 16 17 18 20 21 22 23 24 24 23 23 22 20 19 18 19 19 20 19 19 19 19 18 17 15 14 13 12 11 11 12 13 13 13 10 8 8 7 7 7 6 5 4 3 4 4 4 3 3 3 3 3 3 3 3 3 3 4 3 3 3 3 3 3 4 5
14 14 14 13 13 13 13 12 12 12 12 12 12 12 12 14 15 16 17 16 17 18 20 21 22 23 24 24 23 23 22 21 20 18 19 21 21 21 20 20 20 19 17 16 14 14 13 12 12 12 12 12 13 11 9 8 7 7 7 7 6 5 4 4 4 3 3 3 3 3 3 3 4 4 4 4 4 4 4 3 3 3 4 4 5
16 15 15 14 14 13 13 13 12 12 13 13 12 12 13 15 16 18 18 17 18 21 22 22 22 23 24 24 24 24 23 22 20 19 20 21 22 22 22 21 20 19 18 17 15 15 14 13 12 12 12 11 12 12 10 8 7 7 7 7 6 5 4 4 3 3 4 3 3 3 2 3 5 5 4 4 4 4 4 4 4 4 5 5 7
16 16 15 15 15 14 13 12 12 13 13 13 13 13 14 16 18 20 21 19 21 24 24 23 23 23 24 25 25 24 23 22 20 19 21 22 22 22 22 22 21 20 19 18 17 16 15 14 13 12 11 10 11 12 11 9 8 7 7 7 7 6 5 4 4 4 4 3 3 3 3 3 4 5 4 4 4 4 4 4 4 5 5 6 7
16 16 16 15 15 14 13 12 12 13 13 13 13 14 15 17 19 21 21 21 24 24 23 23 24 23 24 25 25 24 23 22 20 20 22 22 22 22 22 22 21 20 19 19 18 18 17 16 14 12 10 9 10 12 12 10 9 8 8 8 8 7 6 6 5 5 5 4 3 3 3 3 3 3 4 3 3 3 4 4 4 5 5 6 7
16 16 16 16 15 13 12 12 12 13 13 13 13 14 16 18 20 21 21 22 22 20 22 25 24 23 23 24 24 24 24 22 21 22 24 22 21 22 22 21 20 19 20 19 19 19 18 17 15 12 10 9 10 11 12 11 10 8 8 8 8 8 7 7 6 5 6 6 5 4 4 4 4 4 4 4 4 4 4 5 5 5 6 6 7
17 17 17 15 14 12 12 11 12 13 13 13 13 15 16 18 19 19 20 20 20 21 25 27 25 23 23 23 24 24 24 23 22 24 24 22 21 21 21 21 20 20 20 19 20 19 18 17 15 12 11 11 11 11 11 11 10 9 8 8 8 8 8 7 7 6 6 7 7 6 5 5 5 5 5 5 6 6 6 6 7 7 7 8 9
17 17 16 15 13 12 11 10 11 12 12 13 13 14 15 16 16 17 17 19 21 24 27 25 24 24 23 23 23 24 24 23 23 24 24 22 21 22 21 21 20 20 20 19 20 19 18 18 16 12 11 11 12 11 10 11 11 9 8 8 8 9 8 7 7 6 6 7 7 7 6 6 5 6 6 6 7 7 8 8 8 8 8 9 10
17 17 16 14 12 11 10 10 10 11 12 12 12 13 14 15 14 15 16 18 22 24 24 21 22 24 23 22 22 23 23 22 23 24 22 20 19 20 21 20 20 20 20 19 20 20 18 18 16 13 12 12 12 11 10 10 10 10 8 8 8 9 8 7 7 7 7 7 7 7 7 6 6 6 7 7 8 8 8 9 9 9 9 9 10
17 16 14 12 11 9 9 10 10 11 11 11 11 13 13 14 14 15 16 18 21 22 20 18 21 22 20 21 20 20 21 22 23 23 22 20 19 19 20 21 21 21 19 18 19 20 19 18 17 14 13 14 13 11 10 10 10 10 8 7 8 9 9 7 7 7 7 7 7 7 7 7 7 7 7 8 8 8 9 9 9 9 9 8 9
15 14 13 12 11 10 10 10 11 10 10 10 11 12 13 13 14 16 17 19 20 19 18 19 20 19 19 21 19 18 19 21 23 24 24 22 20 20 20 21 21 21 18 17 19 20 20 18 17 16 14 15 14 12 10 10 10 10 7 6 7 9 9 8 7 7 7 7 7 7 7 8 8 8 8 8 9 9 9 9 10 10 9 8 9
15 14 13 11 10 10 10 10 11 10 10 10 10 11 12 13 14 16 18 19 19 19 19 18 17 17 19 19 17 18 21 21 22 23 23 23 21 20 19 19 18 19 19 19 20 21 20 18 18 17 15 15 14 12 10 10 10 9 7 6 6 7 9 8 7 7 8 8 8 8 8 8 9 9 9 9 10 9 9 9 9 10 9 9 9
16 14 12 11 9 9 9 10 10 10 10 10 10 11 12 14 15 17 18 19 19 19 18 17 16 17 18 16 15 19 21 22 22 21 22 22 20 19 19 18 17 18 20 21 21 20 19 18 18 18 17 15 14 13 11 10 9 9 7 5 5 6 8 8 6 7 8 9 9 8 8 8 9 9 10 10 10 11 10 10 9 9 9 9 9
15 14 13 11 10 10 9 10 11 10 10 9 9 11 12 14 16 18 19 19 19 17 17 16 16 16 16 15 15 17 19 21 21 20 20 20 19 18 18 19 19 19 20 21 21 19 18 18 18 18 17 16 15 13 11 9 8 9 8 5 4 6 8 8 7 6 8 9 9 9 8 9 9 9 10 11 11 11 11 10 10 9 9 9 9
14 13 13 11 10 10 9 10 11 10 9 8 9 11 13 15 16 18 19 19 18 17 16 16 16 16 15 16 16 17 19 20 20 18 18 18 18 19 19 20 20 20 19 19 19 17 17 18 17 17 16 15 15 12 10 9 8 8 8 5 4 5 7 8 8 7 8 9 9 9 9 9 9 9 11 11 11 12 11 10 10 9 8 9 9
14 13 12 11 10 9 8 9 10 10 9 8 9 11 13 15 16 18 19 17 16 17 16 16 17 16 16 17 17 17 17 18 18 18 18 18 18 19 19 20 21 20 19 17 17 16 18 19 16 15 14 15 14 12 11 11 9 8 8 6 4 4 6 8 9 8 8 8 9 9 9 9 9 10 11 11 11 11 11 10 9 8 8 8 8
15 14 12 11 10 8 8 9 9 9 8 8 10 11 13 15 17 18 18 16 16 17 17 16 15 15 15 16 16 15 16 17 17 17 17 17 17 18 20 21 21 20 18 16 16 18 19 19 16 14 13 14 14 13 12 10 8 8 9 7 4 3 5 8 10 10 8 8 9 9 9 9 9 10 10 10 11 11 10 10 9 8 8 8 8
16 15 13 11 10 9 9 8 8 8 8 8 10 11 13 16 17 17 16 15 16 17 16 15 14 14 15 14 14 14 15 16 15 15 15 16 17 17 19 21 21 20 17 15 16 18 18 17 17 16 13 13 14 13 11 9 9 9 8 8 4 2 3 7 11 12 10 8 8 9 9 9 8 9 9 9 10 10 9 9 9 8 7 7 7
17 15 14 12 11 10 8 7 8 9 8 9 10 12 14 16 16 16 15 15 15 16 15 14 14 15 14 13 12 13 14 15 15 14 15 16 16 16 18 20 21 20 17 16 17 18 19 18 19 18 13 12 13 13 12 10 9 9 9 8 6 4 3 6 11 12 12 10 8 9 9 8 8 8 8 8 9 9 8 7 7 6 6 6 6
17 16 15 13 12 10 8 8 9 10 9 10 12 13 15 15 15 15 15 15 14 14 14 14 14 14 14 13 12 13 15 16 15 15 16 17 17 16 18 20 20 20 18 18 19 21 21 20 20 19 14 12 13 14 12 11 10 9 10 9 7 7 6 7 10 12 13 11 9 9 8 8 7 6 7 7 7 6 5 4 4 5 5 5 6
17 16 15 14 12 10 9 9 10 11 11 12 13 13 14 14 14 14 14 14 14 14 14 14 14 14 13 14 14 15 16 17 17 17 17 17 17 17 18 20 19 19 20 19 20 21 21 21 20 18 14 12 14 14 12 12 13 11 10 9 7 6 6 5 9 12 13 12 10 9 8 7 7 6 5 5 4 3 3 2 3 4 5 4 5
17 16 15 14 12 10 10 10 11 12 12 12 13 13 14 14 14 14 14 14 15 15 15 15 14 14 14 15 16 17 18 18 18 18 19 19 19 19 19 20 19 18 20 21 20 20 20 20 20 17 14 13 14 14 13 16 17 15 10 8 9 9 8 6 8 12 13 12 11 9 7 6 7 6 5 4 4 3 2 3 4 4 4 4 5
17 17 16 15 13 11 10 11 11 12 13 13 13 14 14 15 14 14 14 15 15 15 15 16 16 16 17 17 18 18 18 19 19 19 20 21 21 20 20 20 20 19 21 22 21 20 19 19 19 18 16 15 15 14 15 18 19 16 11 9 10 11 14 14 9 12 13 12 12 10 8 6 6 6 5 5 4 3 3 3 3 4 5 5 5
18 17 16 15 13 11 10 12 13 13 14 15 15 15 16 16 15 14 14 15 16 16 14 15 17 18 19 19 20 19 19 19 20 20 21 21 22 21 20 20 20 20 21 23 22 20 18 17 18 17 17 16 16 16 16 18 19 17 15 13 14 14 17 19 15 11 13 12 12 11 9 8 7 6 6 5 4 3 3 3 3 4 4 4 4
18 17 16 15 13 11 11 13 14 15 16 16 17 17 18 17 15 14 14 15 17 17 16 16 17 18 19 20 21 20 20 20 20 21 21 21 22 21 20 18 19 20 21 23 22 21 19 17 17 17 17 16 16 17 17 18 18 18 20 20 21 21 19 19 17 14 13 12 11 11 11 10 8 6 6 6 5 4 3 3 3 2 2 3 2
18 16 15 14 13 11 12 14 15 16 16 17 17 18 19 17 15 14 15 16 17 18 19 18 18 19 20 21 21 21 22 22 23 23 23 23 23 23 23 21 19 19 21 22 22 21 20 19 19 18 18 18 17 17 17 18 18 19 24 23 20 21 19 17 18 17 14 12 10 10 11 10 8 7 7 7 5 4 4 2 2 1 1 1 1
17 15 14 13 13 12 14 15 16 17 17 17 18 19 19 18 17 15 15 16 17 19 20 21 21 22 21 21 21 22 24 25 26 27 27 26 25 25 26 25 22 20 21 22 22 22 21 20 20 19 19 20 21 21 18 19 20 21 25 25 20 20 19 16 18 18 16 14 10 10 11 10 9 8 7 7 5 4 3 2 1 1 1 1 1
15 14 14 13 13 14 15 16 18 19 18 18 19 20 20 19 18 17 16 17 18 20 21 22 23 24 23 21 21 23 25 27 29 30 29 28 27 26 26 27 26 23 22 23 22 23 23 22 21 20 19 21 23 24 22 21 22 23 24 24 22 22 19 16 17 17 17 16 12 11 12 11 9 9 8 7 6 4 3 2 2 1 2 2 1
14 13 14 14 15 16 17 18 19 20 19 20 21 22 22 20 20 19 18 18 19 20 22 22 23 23 23 22 23 24 26 28 30 31 32 31 30 28 27 27 28 26 24 24 23 23 23 23 21 20 20 21 23 26 26 25 25 25 24 24 23 21 19 16 16 16 16 15 13 13 13 12 11 10 8 7 6 5 4 4 3 2 2 2 1
13 13 14 15 16 17 18 19 20 20 19 20 22 23 22 21 20 19 19 18 19 20 21 22 23 23 23 24 25 25 27 29 31 32 33 33 32 30 29 28 28 28 26 24 24 23 23 23 22 22 21 21 22 25 27 25 25 26 25 24 22 20 19 17 16 16 16 15 14 13 13 13 12 10 8 8 7 6 6 6 5 3 3 3 2
14 14 15 16 17 18 19 20 20 20 20 21 23 23 22 21 20 19 19 19 19 20 21 22 22 22 23 25 26 27 28 30 32 33 34 34 34 32 30 29 29 29 28 26 25 24 23 23 23 23 22 20 20 22 23 23 24 24 24 24 23 21 20 18 17 17 17 16 15 14 14 14 12 10 9 9 8 7 7 6 6 5 4 4 4
15 15 16 17 18 19 20 20 20 20 21 22 23 23 22 21 20 19 19 19 20 20 22 22 22 23 25 26 28 29 30 31 33 34 35 35 34 32 29 29 29 29 28 27 26 25 24 23 23 22 22 21 20 21 21 22 22 22 22 23 23 22 21 19 18 17 18 17 16 15 14 14 13 11 10 10 9 8 8 7 6 6 5 5 5
16 16 17 18 19 20 20 20 21 21 22 22 23 22 22 22 20 19 19 19 20 21 21 21 22 24 26 28 29 31 32 33 34 34 35 35 33 30 28 27 28 28 27 27 26 24 24 23 23 22 22 22 22 21 22 22 22 22 23 23 23 22 21 20 18 17 18 18 16 15 15 14 13 11 11 11 9 8 8 7 7 7 6 6 6
17 17 18 19 20 20 21 21 21 21 22 22 22 22 22 21 20 19 19 20 21 21 22 22 23 25 26 28 30 32 34 35 36 35 35 34 33 30 28 27 27 27 26 26 25 23 23 23 23 22 22 23 22 21 22 23 23 23 24 24 23 22 22 19 17 17 18 18 17 16 15 15 14 12 12 10 9 9 9 9 8 8 8 7 7
18 19 19 20 20 20 20 21 21 22 22 22 22 22 21 20 20 20 20 21 22 22 22 23 24 25 26 28 30 33 35 37 38 37 35 34 33 30 28 27 27 26 25 25 24 22 21 22 22 22 22 21 21 21 22 24 24 24 25 25 23 22 21 19 17 18 18 17 16 16 16 15 14 13 12 11 10 10 10 10 9 9 9 8 8
18 19 20 20 20 20 20 20 21 22 22 22 22 22 21 20 20 20 21 22 23 23 23 24 25 25 27 29 31 33 35 38 39 38 35 33 31 29 27 27 27 26 25 25 23 21 20 20 21 22 21 20 20 21 22 23 25 26 27 26 24 23 22 20 19 18 18 18 17 17 17 16 15 13 13 12 11 11 11 10 9 10 10 9 9
20 21 21 21 21 21 20 20 21 21 21 21 21 21 21 20 20 21 22 22 23 24 24 25 26 27 28 30 32 34 35 37 37 36 34 33 32 30 29 29 29 27 26 25 23 20 19 20 21 21 20 20 19 19 20 20 22 24 25 26 25 24 23 22 20 19 19 20 19 18 17 16 15 14 13 12 11 11 11 11 10 10 11 10 10
21 22 22 22 21 21 20 20 21 21 21 21 21 21 21 21 21 21 22 23 24 25 25 26 27 28 29 31 32 34 35 37 37 35 35 35 36 35 33 32 31 29 28 26 23 20 19 20 21 21 20 19 19 19 19 19 20 21 22 24 24 23 23 22 21 19 19 20 19 18 18 17 17 16 15 13 11 11 12 12 11 11 12 11 11
23 23 22 22 21 20 20 20 20 21 21 22 22 21 21 21 21 22 23 24 25 26 27 27 28 29 30 31 32 33 34 36 38 38 38 39 39 38 36 35 34 32 31 27 24 21 20 20 21 21 18 18 20 20 21 21 20 21 22 23 23 22 22 21 21 20 20 20 19 18 18 18 18 17 16 14 12 12 13 12 11 11 13 12 12
Wind_Direction
307 309 309 306 306 305 306 305 301 298 298 300 301 309 317 321 322 323 326 333 335 337 338 338 339 339 340 340 343 345 347 347 348 348 347 347 349 352 359 5 3 4 5 9 9 5 3 4 5 5 4 2 0 1 4 4 3 6 359 358 357 1 11 30 58 73 64 53 62 85 88 81 78 73 71 71 70 72 75 74 69 66 57 46 37
302 303 304 301 302 301 301 295 289 286 288 291 296 306 313 319 320 320 325 331 333 334 335 336 337 336 337 337 340 342 343 344 345 345 344 344 345 348 356 2 1 2 4 7 9 6 4 3 4 5 6 5 2 0 1 1 359 1 355 359 0 2 7 19 44 66 67 53 49 72 79 77 73 72 75 75 74 76 79 81 76 69 61 50 38
296 296 296 294 295 294 289 279 274 275 278 283 292 302 308 315 316 317 322 328 330 331 332 333 334 333 333 334 336 339 339 340 342 341 339 342 343 344 349 354 357 0 3 6 8 7 6 4 4 4 5 5 3 359 358 359 0 3 359 0 4 9 12 20 35 56 68 59 48 64 74 74 73 75 79 81 80 82 84 83 80 72 63 53 43
291 290 287 286 286 284 273 262 262 266 271 279 288 297 304 311 312 314 320 325 326 327 328 329 330 330 330 330 333 335 335 335 338 336 334 339 342 342 342 345 350 356 360 4 7 7 7 4 4 6 6 5 4 0 358 359 2 6 4 5 8 13 16 23 34 51 65 61 51 68 78 76 78 82 82 85 85 87 87 85 82 75 67 57 46
286 281 277 277 278 272 256 252 256 260 268 276 285 293 300 306 308 312 318 323 323 324 324 325 326 327 326 326 329 331 332 332 332 332 330 335 341 341 338 337 344 351 355 359 3 6 7 5 5 7 8 6 4 1 358 358 2 4 6 9 11 13 14 21 30 47 62 61 56 76 83 80 83 88 87 88 87 89 90 88 84 77 71 60 49
275 270 268 270 269 258 247 248 251 257 266 274 282 288 295 300 304 310 318 321 321 321 322 323 324 324 323 322 325 327 328 328 327 327 326 331 339 341 340 338 340 345 349 354 359 2 5 4 4 7 9 6 4 1 358 358 0 1 4 10 14 12 11 15 18 35 57 59 62 76 80 81 88 94 94 89 86 89 92 92 87 80 73 62 49
262 260 261 263 258 246 242 244 249 256 263 270 276 281 288 294 300 310 317 319 319 320 322 324 323 322 320 320 322 325 325 324 323 323 324 328 334 339 341 338 338 340 344 350 354 357 1 2 3 5 7 5 2 360 358 357 357 0 2 9 16 15 13 13 6 15 43 55 64 67 71 79 89 97 96 88 83 87 96 98 91 80 72 61 47
253 252 255 256 246 240 240 243 247 252 259 264 269 275 283 291 300 311 316 318 318 321 323 324 323 321 319 319 321 323 323 321 319 321 323 325 329 332 334 334 335 337 339 344 350 352 355 358 1 2 4 3 1 357 356 355 355 357 358 4 9 15 14 15 9 8 24 38 50 62 71 79 88 98 96 89 87 90 97 97 88 75 66 57 42
247 247 251 248 239 238 239 241 244 250 255 260 265 272 280 290 302 311 316 317 319 321 322 324 323 321 320 320 321 321 321 319 317 319 322 324 326 329 331 331 331 333 335 339 344 348 350 352 356 359 0 1 359 356 353 351 352 351 355 358 359 8 9 17 14 2 19 30 30 49 76 76 84 100 100 99 102 103 100 90 76 61 54 47 34
244 246 246 241 235 237 237 240 243 249 254 260 266 272 281 291 303 312 316 319 320 321 322 323 322 320 320 321 320 320 319 317 317 317 320 320 323 327 328 327 327 329 331 335 338 344 348 348 351 354 356 357 357 354 351 349 348 347 349 349 353 1 4 16 11 10 28 28 11 8 50 63 74 92 100 104 107 104 100 87 69 48 40 35 25
242 245 242 236 234 236 237 240 244 250 256 262 267 274 282 292 306 314 317 319 321 321 323 323 322 321 321 320 319 318 317 317 317 316 317 317 318 323 324 323 324 325 328 332 335 341 345 345 346 349 351 352 352 351 349 347 345 342 341 340 346 353 2 8 359 24 32 19 17 23 36 49 56 76 91 96 101 100 97 87 68 44 34 28 19
241 242 238 234 235 237 239 241 247 253 258 263 268 274 282 296 309 315 317 319 320 322 324 323 323 322 319 317 316 316 316 317 318 316 315 314 316 320 321 321 320 322 326 329 332 337 341 340 339 344 346 346 346 347 346 344 341 338 335 334 337 341 351 349 352 25 24 14 33 32 37 48 53 67 74 81 87 90 89 83 66 44 31 25 16
242 239 234 235 237 239 243 246 251 255 259 263 268 273 284 300 311 314 314 315 318 321 323 323 323 320 316 315 315 315 316 317 317 316 314 313 315 319 319 319 319 320 323 326 330 332 333 334 334 338 341 340 339 341 342 340 337 334 330 328 328 329 335 341 1 16 3 13 39 39 45 55 62 65 66 69 70 72 68 62 48 32 27 23 16
242 240 236 237 240 242 246 249 253 257 261 264 269 276 289 302 309 310 308 309 314 320 320 320 319 315 313 313 314 314 314 315 316 315 314 315 316 318 318 319 319 319 321 323 326 327 326 327 329 333 336 335 333 335 337 336 333 330 325 324 325 325 330 342 1 356 339 6 34 42 52 65 66 62 59 59 60 58 50 39 26 20 20 19 13
240 241 239 240 241 244 247 249 254 258 263 268 274 283 294 302 306 304 301 305 313 319 318 316 313 311 312 313 313 312 313 315 315 314 314 317 317 317 318 320 320 319 320 321 324 323 319 320 323 329 334 331 328 330 332 333 331 328 324 322 324 325 326 324 329 322 323 353 24 38 46 66 69 63 57 55 58 58 51 39 24 16 14 13 10
238 239 240 241 243 245 247 250 255 260 266 271 278 287 295 301 301 300 300 305 314 317 315 311 310 312 313 312 311 312 314 315 314 312 315 318 317 316 318 320 320 319 320 320 321 318 314 314 314 322 332 328 322 325 327 329 328 328 325 320 322 324 323 310 306 311 313 333 10 33 38 57 66 60 53 47 52 54 50 39 20 10 6 7 3
238 239 241 242 244 246 249 251 256 261 266 271 279 287 295 298 298 300 302 306 312 313 312 310 308 311 312 310 310 312 314 314 312 312 314 316 315 314 317 319 318 319 319 319 318 314 311 310 308 314 326 322 315 320 322 323 325 327 326 321 321 324 326 320 314 312 309 317 340 13 24 33 43 41 35 26 27 30 28 19 4 0 356 357 351
241 241 242 243 246 249 251 253 256 260 264 272 281 288 295 297 298 302 303 305 307 308 311 313 309 307 308 308 310 312 312 312 310 311 312 312 311 312 314 315 315 315 316 317 317 313 311 308 305 308 315 310 306 312 315 316 320 322 325 322 320 321 324 325 321 315 309 312 321 342 356 0 1 358 0 354 350 353 355 349 341 340 337 341 339
245 245 246 246 249 253 254 254 256 260 265 273 281 289 295 297 303 307 304 302 300 302 310 314 312 308 306 308 312 313 313 312 311 312 313 311 309 311 313 313 313 313 312 315 316 313 312 307 304 306 307 301 297 302 306 309 313 316 321 322 319 318 320 321 323 321 314 311 311 319 330 338 339 333 332 331 330 330 329 328 324 321 323 328 330
248 247 248 249 251 254 253 252 254 260 266 273 283 291 296 302 310 309 305 303 302 304 307 311 315 313 309 310 313 314 314 314 313 314 314 313 312 313 315 316 315 313 311 314 316 314 311 306 305 306 303 294 289 293 297 302 307 311 316 320 318 313 314 318 320 322 320 316 312 310 314 316 314 312 312 313 313 313 313 312 312 312 316 321 327
249 249 250 252 254 254 253 253 256 261 266 275 288 294 300 308 315 314 311 311 311 310 309 308 315 317 313 311 311 312 314 314 312 312 312 313 314 314 315 317 318 317 313 314 315 312 310 305 304 306 301 291 284 286 290 295 302 306 313 319 316 309 311 320 320 322 326 324 321 318 316 312 308 305 304 304 302 301 301 300 301 304 309 316 326
251 251 253 256 256 252 252 253 256 262 268 279 290 295 302 312 317 320 320 319 318 318 313 307 313 316 312 310 308 309 312 311 309 308 308 309 310 310 311 314 319 321 315 314 316 312 307 303 302 303 301 290 282 282 283 288 295 300 310 319 316 308 310 320 322 324 327 326 324 321 318 313 307 303 300 299 298 297 296 293 292 294 300 310 322
260 260 260 258 255 252 250 251 256 262 268 277 288 295 304 312 317 322 324 324 322 321 318 312 315 315 311 310 306 312 317 312 310 308 306 308 310 310 310 312 317 322 317 312 315 313 306 301 300 300 298 291 281 276 276 281 290 296 304 319 319 308 308 316 323 325 326 325 323 318 314 308 302 298 294 292 292 292 293 290 285 285 291 301 317
267 267 264 261 259 256 252 251 258 262 268 279 289 296 305 312 318 325 327 325 323 323 324 321 320 317 319 317 308 318 324 317 312 309 307 309 312 313 312 311 313 320 318 312 313 313 306 299 300 300 294 289 279 271 272 276 285 293 297 314 322 306 302 308 319 323 324 325 322 317 311 307 302 297 292 289 287 285 286 286 278 275 283 294 311
262 266 264 260 257 255 253 255 262 266 273 283 290 297 308 313 320 326 328 326 323 326 330 327 326 327 332 332 320 321 325 322 317 311 310 311 312 315 314 312 309 313 316 316 314 309 305 301 300 300 293 285 278 270 270 272 281 290 294 312 320 304 297 301 313 319 320 322 320 316 311 306 301 296 292 287 284 281 280 281 276 270 275 288 304
259 265 266 261 254 252 254 257 262 270 278 286 292 303 311 315 322 327 328 327 324 329 333 329 328 333 339 339 332 328 327 328 325 318 315 314 314 316 316 313 309 311 315 317 315 304 301 304 302 300 294 286 277 270 271 273 278 286 292 308 315 302 295 297 308 316 316 316 316 313 309 304 298 293 290 285 282 280 280 279 275 269 272 283 298
257 261 263 261 257 256 256 259 265 274 283 292 299 307 312 315 322 326 327 327 327 330 331 327 327 331 338 341 336 333 331 333 332 327 325 322 319 319 317 313 310 312 314 315 313 302 295 298 303 302 295 286 276 270 273 269 269 280 289 301 314 302 291 293 303 309 309 310 311 310 304 300 296 293 289 285 283 281 281 279 275 271 273 280 294
259 259 259 259 259 260 260 263 271 280 288 297 303 308 310 315 321 325 326 327 328 327 328 328 329 333 339 339 335 334 335 335 335 333 332 331 329 325 319 315 312 311 312 311 309 304 295 288 297 307 296 285 276 266 264 259 255 273 288 295 308 301 289 291 298 299 303 307 307 304 299 295 294 293 290 287 285 283 280 276 273 272 275 282 296
257 258 257 259 262 264 264 267 274 283 293 296 301 305 307 315 322 324 325 327 326 324 327 329 333 339 340 338 337 338 337 334 333 331 333 335 335 330 322 319 316 312 310 309 308 308 301 284 283 303 297 282 276 265 262 257 251 265 283 292 300 298 292 293 294 295 298 303 303 300 293 289 291 291 290 289 285 281 278 273 272 273 279 290 298
256 257 258 262 267 267 267 270 276 284 291 293 296 301 309 318 322 323 322 325 324 326 330 331 337 344 342 343 343 340 335 330 328 327 332 336 335 332 326 322 319 316 310 306 309 311 306 287 278 290 291 280 275 266 263 255 250 261 277 290 293 286 300 295 290 293 298 300 299 295 292 288 289 292 289 287 282 276 274 273 275 280 287 296 297
256 257 260 263 266 269 271 271 276 285 288 290 296 303 313 319 320 319 320 322 324 328 332 332 339 344 343 345 344 339 332 329 329 328 329 331 331 330 327 323 320 319 310 301 305 306 303 295 286 285 278 275 271 260 256 248 249 261 270 280 282 261 276 292 288 291 296 299 299 292 292 290 285 288 287 282 279 276 274 275 283 294 300 302 298
257 258 260 263 265 268 272 274 278 285 288 291 298 307 316 318 316 314 316 319 321 326 331 334 340 344 341 339 339 337 334 332 332 331 329 328 328 326 323 319 318 318 312 302 301 301 298 295 293 285 267 265 265 254 249 249 252 258 263 270 275 266 263 280 287 291 296 296 298 295 291 290 282 280 281 280 282 281 278 284 300 311 314 307 301
257 258 260 263 266 270 272 275 281 286 288 292 299 310 314 313 311 310 312 316 320 324 333 338 341 344 340 334 332 334 335 333 331 328 327 326 327 326 322 318 317 317 314 308 301 298 297 293 293 285 259 250 259 252 239 242 250 251 258 265 268 261 248 272 292 289 294 296 296 296 289 281 278 271 270 280 289 288 292 316 326 323 320 313 303
256 258 259 262 265 272 274 275 282 287 289 295 302 307 310 309 306 306 310 314 319 324 333 339 339 342 340 334 331 331 333 331 328 325 324 324 328 329 325 322 319 316 316 314 307 300 295 290 290 283 259 245 254 254 235 230 238 244 251 252 250 250 240 254 302 296 291 298 296 291 284 270 267 264 261 278 288 298 324 339 336 329 322 315 304
256 257 260 263 265 269 273 276 282 287 291 296 301 303 306 306 301 303 310 313 316 321 332 338 337 339 338 334 330 329 329 327 325 325 324 325 329 329 326 325 320 316 318 317 313 307 297 286 283 277 265 255 254 257 245 230 229 238 241 234 239 257 262 252 275 303 296 295 296 288 281 270 260 257 257 275 286 296 323 338 334 329 320 314 305
258 259 261 263 266 269 272 277 281 284 289 293 298 301 304 302 298 300 307 310 313 316 326 334 334 335 334 331 328 327 327 327 326 326 328 327 328 327 325 324 319 315 318 319 316 311 303 290 281 275 268 261 258 259 253 236 229 234 235 233 238 254 270 258 251 287 297 288 288 287 280 272 261 256 257 270 281 289 312 328 330 327 321 317 309
260 261 262 263 266 269 270 272 277 281 286 292 297 301 302 299 295 297 302 306 310 314 320 327 330 330 329 328 325 326 327 328 328 328 328 327 324 323 320 319 318 316 318 319 317 311 305 295 286 280 270 261 257 259 256 243 233 235 237 240 246 247 258 262 251 265 286 278 278 283 278 272 267 259 257 263 273 285 303 318 322 331 329 323 313
261 260 261 262 261 260 263 267 274 279 284 290 295 297 297 295 292 293 297 303 308 312 317 323 326 326 326 326 325 326 328 329 329 327 326 325 322 320 316 315 317 318 318 317 315 309 304 297 289 282 273 262 256 254 252 246 236 235 238 239 244 243 246 259 256 257 269 266 270 278 270 271 273 267 261 261 267 284 295 300 307 326 330 309 305
259 259 257 256 255 255 259 265 270 275 280 286 291 294 293 291 290 291 294 301 306 311 317 321 324 324 325 326 326 327 329 329 328 326 325 324 322 320 317 316 316 316 316 316 314 309 303 297 289 282 276 267 256 247 244 246 239 233 235 234 238 243 244 250 250 250 254 253 261 269 261 260 266 266 264 260 263 272 275 258 241 251 244 219 212
256 255 253 251 252 254 258 262 266 271 279 286 292 294 293 292 292 293 295 301 307 313 317 320 322 324 325 327 329 329 329 328 326 325 324 322 321 320 317 315 314 312 311 311 312 310 304 298 290 282 276 270 259 249 244 246 241 233 233 233 238 245 244 242 243 247 250 250 257 263 256 251 256 260 258 255 254 254 253 231 213 232 234 214 203
249 248 249 249 249 252 257 261 266 272 280 288 293 295 294 292 292 295 297 301 307 312 315 319 322 325 327 329 330 329 327 325 323 322 321 320 318 317 315 312 310 309 307 304 305 308 307 301 292 282 275 271 264 253 249 249 243 236 233 231 233 239 239 238 240 246 249 248 254 258 254 251 254 257 253 248 245 242 241 232 227 240 239 219 203
242 244 246 248 250 253 257 262 267 275 283 290 294 295 292 290 290 293 296 298 303 308 313 317 321 324 327 328 328 327 325 322 321 319 318 317 316 315 313 309 306 305 303 299 298 301 306 304 293 283 277 275 268 254 248 248 239 233 232 229 229 232 235 236 235 241 248 247 249 252 251 251 253 255 252 244 240 237 235 238 244 246 231 214 200
241 243 246 248 252 255 258 263 269 277 284 290 293 292 288 286 287 290 293 296 301 307 311 314 318 321 323 323 323 322 322 320 319 317 316 315 314 313 311 308 304 302 302 299 295 295 299 304 298 286 280 277 269 254 246 242 234 231 231 227 227 229 233 234 230 236 246 247 246 247 248 250 252 254 250 241 239 239 236 239 247 242 228 218 210
245 245 247 250 254 258 260 265 271 277 284 289 290 288 284 283 285 287 290 295 300 306 310 312 315 317 318 319 319 320 320 319 317 316 315 313 311 309 308 306 303 301 301 299 296 293 293 301 302 291 282 276 266 254 247 240 233 232 232 228 225 227 229 229 226 231 239 241 241 243 246 249 251 251 245 238 240 245 241 238 242 240 229 219 211
246 245 247 251 254 258 261 266 272 278 284 288 287 285 283 283 284 286 290 294 298 304 308 310 313 315 317 318 318 318 318 317 315 313 311 308 305 304 303 302 301 299 300 299 296 294 293 297 302 296 284 277 267 256 249 243 235 231 229 226 223 223 224 222 223 228 233 237 237 238 242 247 250 248 240 237 241 245 243 241 246 243 229 217 212
245 246 246 249 252 256 261 266 272 279 284 286 283 281 281 282 284 287 290 294 299 304 307 309 313 315 316 316 316 316 316 314 313 311 308 302 297 296 297 297 296 296 296 296 295 293 291 294 300 297 287 278 269 258 250 243 235 228 223 221 220 220 221 220 221 226 230 235 236 238 240 241 245 245 238 237 240 241 242 245 248 239 227 222 222
246 248 247 247 250 254 260 266 273 280 283 283 280 278 278 280 283 287 290 294 299 303 305 308 311 312 313 314 314 315 314 312 310 308 303 298 296 298 299 297 296 296 295 293 294 292 288 290 297 297 288 278 269 258 250 243 235 228 221 219 218 218 220 221 221 225 229 233 236 240 241 237 239 240 237 236 236 239 240 244 244 233 226 230 231
249 250 249 248 249 253 259 267 274 280 282 280 278 277 278 281 283 286 289 294 298 300 302 306 309 310 312 313 313 314 313 311 309 307 304 302 304 305 304 304 304 302 298 295 294 291 286 286 292 295 287 276 267 255 248 242 234 227 221 218 217 217 220 222 223 224 228 232 234 238 242 238 235 234 234 234 236 239 240 241 239 230 231 237 234
252 250 249 248 248 252 258 265 273 278 278 277 276 276 277 279 281 283 287 292 295 299 302 306 308 310 312 313 313 313 312 311 308 306 306 306 307 307 305 306 307 304 298 294 293 291 286 284 289 293 285 272 264 253 243 235 227 220 216 216 218 219 220 223 226 226 226 230 232 236 240 239 237 237 237 238 241 241 238 238 236 231 236 243 238
252 248 246 246 248 252 257 264 272 276 277 275 274 274 274 276 278 281 287 290 294 298 303 306 308 310 312 312 312 311 312 310 306 304 305 303 302 302 300 299 300 298 293 289 289 289 286 283 284 290 284 269 263 254 237 226 220 215 215 217 219 220 221 224 228 227 226 228 230 235 239 240 241 243 242 241 242 241 239 241 242 237 238 240 240
248 244 243 245 248 252 257 264 272 276 277 277 276 275 274 274 277 281 286 290 294 299 303 305 308 310 311 311 310 309 310 307 304 304 304 300 296 295 293 292 290 289 289 289 288 283 280 280 280 284 282 268 265 256 234 223 222 219 219 221 222 222 224 227 229 228 227 228 230 235 240 241 244 246 244 242 242 241 241 244 246 241 239 239 240
Height
5892 5891 5891 5890 5889 5888 5887 5887 5886 5886 5885 5885 5884 5884 5884 5884 5883 5882 5882 5881 5880 5879 5878 5877 5877 5876 5875 5874 5873 5872 5872 5871 5870 5869 5868 5867 5866 5865 5864 5863 5862 5861 5860 5859 5858 5857 5856 5856 5855 5854 5854 5853 5852 5852 5852 5851 5851 5850 5850 5850 5849 5849 5848 5847 5847 5846 5846 5846 5846 5845 5845 5844 5843 5843 5843 5843 5842 5842 5842 5842 5842 5842 5842 5842 5843
5891 5890 5890 5889 5888 5887 5886 5886 5885 5885 5884 5884 5884 5884 5884 5883 5883 5882 5881 5880 5879 5878 5877 5876 5876 5875 5874 5873 5873 5872 5871 5870 5869 5868 5867 5866 5865 5864 5864 5863 5862 5861 5860 5860 5859 5858 5856 5855 5855 5854 5854 5853 5853 5852 5852 5852 5851 5851 5850 5850 5849 5848 5848 5847 5847 5846 5846 5846 5846 5845 5844 5843 5843 5843 5843 5843 5843 5843 5843 5842 5842 5842 5842 5843 5843
5889 5889 5889 5888 5887 5886 5885 5885 5884 5884 5884 5883 5883 5883 5883 5883 5882 5881 5880 5879 5878 5877 5876 5876 5875 5874 5873 5872 5872 5871 5870 5869 5868 5867 5867 5866 5865 5864 5863 5862 5862 5861 5860 5860 5859 5858 5856 5855 5855 5854 5853 5853 5853 5852 5852 5851 5851 5850 5850 5849 5849 5848 5848 5847 5847 5846 5846 5846 5846 5845 5844 5843 5843 5843 5843 5843 5843 5843 5843 5843 5843 5843 5843 5843 5843
5888 5888 5887 5886 5886 5885 5884 5884 5884 5883 5883 5883 5882 5882 5882 5882 5881 5880 5879 5878 5877 5877 5876 5875 5874 5873 5872 5871 5871 5870 5869 5869 5868 5867 5866 5865 5864 5863 5863 5862 5862 5861 5860 5860 5859 5858 5856 5855 5854 5853 5853 5852 5852 5852 5851 5851 5850 5850 5850 5849 5849 5848 5848 5847 5847 5846 5845 5845 5845 5845 5844 5843 5843 5843 5843 5844 5844 5843 5843 5843 5843 5843 5843 5843 5843
5886 5886 5885 5885 5884 5884 5883 5883 5883 5882 5882 5882 5882 5882 5881 5881 5880 5879 5878 5878 5877 5876 5875 5874 5873 5872 5871 5870 5870 5869 5869 5868 5867 5866 5865 5865 5864 5863 5862 5862 5861 5861 5860 5859 5858 5857 5856 5855 5854 5853 5853 5852 5852 5851 5851 5850 5850 5850 5849 5849 5848 5848 5847 5847 5847 5846 5845 5845 5845 5845 5844 5843 5843 5843 5844 5844 5844 5844 5844 5843 5843 5843 5843 5843 5843
5884 5884 5884 5883 5883 5883 5882 5882 5882 5882 5882 5881 5881 5881 5880 5880 5879 5878 5878 5877 5876 5875 5874 5873 5872 5871 5870 5870 5869 5868 5868 5867 5866 5866 5865 5864 5864 5863 5862 5862 5861 5860 5860 5859 5858 5857 5856 5855 5854 5853 5852 5852 5851 5851 5850 5850 5850 5849 5849 5849 5848 5848 5847 5847 5847 5846 5846 5845 5845 5845 5844 5844 5844 5844 5844 5844 5844 5844 5844 5844 5843 5843 5843 5843 5843
5883 5882 5882 5882 5882 5882 5881 5881 5881 5881 5881 5880 5880 5880 5879 5879 5878 5878 5877 5876 5875 5874 5874 5873 5872 5871 5870 5869 5868 5868 5867 5867 5866 5865 5865 5864 5863 5863 5862 5861 5861 5860 5860 5859 5858 5857 5856 5855 5854 5853 5852 5852 5851 5851 5850 5850 5849 5849 5849 5848 5848 5848 5847 5847 5846 5846 5846 5845 5845 5845 5844 5844 5844 5844 5844 5844 5844 5844 5844 5844 5844 5844 5843 5843 5843
5881 5881 5881 5881 5880 5881 5881 5880 5880 5880 5879 5879 5879 5879 5878 5878 5878 5877 5877 5876 5875 5874 5873 5872 5871 5870 5869 5868 5868 5868 5867 5866 5865 5865 5864 5864 5863 5862 5861 5861 5860 5860 5859 5858 5857 5857 5856 5855 5854 5853 5852 5852 5851 5850 5850 5849 5849 5849 5849 5848 5848 5848 5847 5847 5846 5846 5846 5845 5845 5845 5844 5844 5844 5844 5843 5843 5844 5844 5844 5844 5844 5844 5844 5843 5844
5879 5879 5879 5879 5879 5879 5879 5879 5879 5879 5879 5878 5878 5878 5878 5878 5877 5877 5876 5875 5874 5873 5872 5872 5871 5869 5869 5868 5868 5867 5866 5866 5865 5864 5864 5863 5862 5862 5861 5860 5860 5859 5858 5857 5857 5856 5856 5855 5854 5853 5852 5852 5851 5850 5850 5849 5849 5849 5848 5848 5848 5848 5847 5847 5846 5846 5845 5845 5845 5845 5845 5844 5844 5844 5844 5844 5844 5844 5844 5844 5844 5844 5844 5843 5844
5878 5878 5878 5878 5878 5878 5878 5878 5878 5878 5878 5878 5877 5877 5877 5877 5877 5876 5876 5875 5874 5873 5872 5871 5870 5869 5868 5868 5867 5866 5866 5865 5864 5863 5863 5862 5862 5861 5860 5860 5859 5858 5858 5857 5856 5856 5855 5855 5854 5853 5852 5851 5851 5850 5850 5849 5849 5849 5848 5848 5848 5847 5847 5847 5846 5846 5845 5845 5846 5846 5845 5845 5845 5844 5844 5844 5844 5844 5844 5844 5844 5844 5844 5844 5844
5877 5877 5877 5877 5877 5877 5877 5877 5877 5877 5877 5877 5877 5877 5877 5877 5876 5876 5875 5874 5873 5872 5871 5870 5870 5869 5868 5867 5866 5865 5865 5864 5864 5863 5862 5862 5861 5860 5860 5859 5858 5857 5857 5856 5855 5855 5854 5854 5853 5853 5852 5851 5851 5850 5849 5849 5849 5848 5848 5848 5847 5847 5847 5847 5846 5846 5846 5846 5846 5846 5845 5845 5845 5845 5844 5844 5844 5844 5844 5844 5844 5844 5844 5844 5844
5876 5876 5876 5876 5876 5876 5876 5876 5876 5876 5876 5876 5876 5876 5876 5876 5876 5876 5875 5873 5872 5871 5871 5870 5869 5868 5867 5866 5866 5865 5864 5864 5863 5862 5861 5861 5860 5860 5859 5858 5857 5857 5856 5855 5854 5854 5854 5853 5853 5852 5852 5851 5850 5850 5849 5849 5848 5848 5848 5847 5847 5847 5847 5846 5846 5846 5846 5846 5846 5846 5845 5845 5845 5845 5845 5844 5844 5844 5844 5844 5844 5844 5844 5843 5843
5874 5874 5874 5874 5874 5874 5875 5875 5875 5875 5875 5875 5876 5876 5876 5876 5876 5875 5874 5872 5871 5871 5870 5870 5869 5868 5866 5865 5865 5864 5864 5863 5862 5862 5861 5860 5859 5859 5858 5857 5857 5856 5855 5855 5854 5853 5853 5852 5852 5852 5851 5851 5850 5850 5849 5848 5848 5848 5847 5847 5847 5847 5846 5846 5846 5846 5846 5846 5845 5845 5845 5845 5845 5845 5845 5844 5844 5844 5844 5844 5844 5844 5843 5843 5843
5873 5872 5873 5873 5873 5873 5874 5874 5874 5874 5874 5875 5875 5875 5875 5875 5875 5874 5873 5871 5871 5870 5869 5869 5868 5866 5865 5865 5864 5864 5863 5862 5862 5861 5860 5859 5859 5858 5858 5857 5856 5855 5855 5854 5853 5853 5852 5851 5851 5851 5851 5850 5850 5849 5848 5848 5847 5847 5847 5847 5847 5846 5846 5846 5846 5846 5846 5846 5845 5845 5845 5845 5845 5845 5845 5844 5844 5844 5844 5844 5844 5844 5843 5842 5842
5871 5871 5871 5871 5872 5872 5873 5873 5873 5873 5874 5874 5875 5875 5875 5874 5874 5873 5871 5871 5870 5870 5869 5867 5866 5865 5864 5864 5863 5862 5862 5861 5861 5860 5859 5859 5858 5858 5857 5856 5856 5855 5854 5854 5853 5852 5851 5850 5850 5850 5850 5850 5849 5849 5848 5847 5847 5847 5847 5847 5846 5846 5846 5846 5846 5846 5846 5845 5845 5845 5845 5845 5844 5844 5844 5844 5844 5844 5844 5844 5844 5843 5843 5842 5842
5870 5870 5870 5870 5871 5871 5872 5872 5872 5873 5873 5873 5874 5874 5874 5874 5873 5872 5871 5871 5870 5869 5868 5866 5865 5864 5863 5863 5862 5861 5860 5860 5859 5859 5859 5858 5858 5857 5856 5856 5855 5854 5854 5853 5852 5851 5850 5850 5849 5849 5849 5849 5848 5848 5848 5847 5846 5846 5846 5846 5846 5846 5846 5846 5846 5846 5846 5845 5845 5845 5845 5844 5844 5844 5844 5844 5844 5844 5843 5843 5843 5843 5843 5842 5842
5868 5868 5869 5869 5870 5870 5871 5871 5872 5872 5872 5873 5873 5873 5873 5872 5871 5871 5870 5870 5869 5868 5866 5865 5863 5863 5862 5861 5861 5860 5859 5859 5858 5858 5858 5858 5857 5857 5856 5855 5854 5853 5853 5852 5852 5851 5850 5849 5848 5848 5848 5848 5848 5847 5847 5847 5846 5846 5846 5846 5846 5845 5845 5845 5845 5845 5845 5845 5845 5844 5844 5844 5844 5844 5844 5844 5844 5844 5843 5843 5843 5842 5842 5842 5841
5867 5867 5867 5868 5869 5870 5870 5870 5870 5871 5872 5872 5872 5872 5872 5871 5870 5870 5869 5868 5867 5866 5864 5863 5862 5861 5861 5860 5860 5859 5858 5857 5857 5857 5857 5857 5856 5855 5855 5854 5853 5852 5852 5851 5851 5850 5849 5848 5847 5847 5847 5847 5847 5846 5846 5846 5846 5845 5845 5845 5845 5845 5845 5845 5845 5845 5845 5845 5844 5844 5844 5844 5844 5844 5844 5844 5843 5843 5842 5842 5842 5841 5841 5841 5841
5865 5865 5866 5867 5869 5869 5869 5869 5869 5870 5871 5871 5871 5871 5870 5869 5869 5868 5868 5866 5865 5864 5863 5861 5861 5860 5859 5859 5859 5858 5857 5856 5856 5856 5856 5856 5855 5854 5853 5852 5852 5851 5850 5850 5850 5849 5848 5847 5846 5846 5845 5846 5845 5845 5845 5845 5845 5845 5845 5845 5845 5844 5844 5844 5844 5844 5844 5844 5844 5844 5844 5843 5843 5843 5843 5843 5842 5842 5841 5841 5841 5840 5840 5840 5840
5863 5863 5865 5866 5868 5868 5868 5868 5868 5869 5869 5870 5870 5869 5868 5867 5867 5866 5865 5864 5863 5863 5861 5860 5860 5860 5859 5858 5858 5857 5856 5856 5855 5855 5855 5854 5854 5853 5852 5851 5850 5849 5849 5849 5848 5847 5847 5846 5845 5844 5844 5844 5844 5844 5844 5844 5844 5844 5844 5844 5844 5844 5844 5844 5844 5844 5844 5844 5844 5843 5843 5843 5842 5842 5842 5842 5841 5841 5840 5840 5840 5839 5839 5839 5838
5860 5862 5864 5865 5866 5866 5866 5866 5867 5868 5868 5868 5868 5867 5866 5866 5865 5864 5863 5862 5862 5861 5860 5859 5860 5859 5858 5857 5857 5856 5856 5855 5854 5853 5853 5853 5852 5851 5850 5849 5849 5848 5847 5847 5847 5846 5846 5845 5844 5843 5843 5843 5843 5843 5842 5842 5842 5843 5843 5844 5844 5843 5843 5843 5843 5843 5843 5843 5843 5843 5842 5842 5842 5841 5841 5840 5840 5840 5839 5839 5839 5838 5838 5838 5837
5859 5861 5863 5864 5864 5865 5865 5865 5866 5866 5867 5867 5866 5865 5864 5864 5863 5862 5862 5861 5861 5860 5859 5859 5858 5858 5857 5856 5856 5855 5855 5854 5853 5852 5851 5850 5850 5849 5849 5848 5847 5846 5846 5846 5845 5845 5844 5843 5843 5842 5841 5841 5841 5841 5841 5841 5841 5841 5842 5843 5843 5842 5842 5842 5842 5842 5842 5842 5842 5842 5841 5841 5841 5840 5840 5839 5839 5838 5838 5838 5838 5837 5837 5836 5836
5859 5861 5862 5863 5863 5863 5864 5864 5865 5865 5865 5865 5864 5863 5863 5862 5861 5861 5860 5860 5859 5858 5858 5858 5857 5856 5855 5855 5855 5854 5854 5853 5852 5851 5849 5848 5848 5847 5847 5847 5846 5845 5844 5844 5844 5843 5842 5842 5841 5841 5840 5840 5840 5839 5839 5839 5839 5840 5841 5842 5842 5842 5841 5841 5841 5841 5841 5841 5841 5840 5840 5840 5839 5839 5838 5838 5837 5837 5837 5836 5836 5836 5836 5835 5835
5857 5859 5860 5861 5862 5862 5862 5863 5863 5863 5863 5863 5863 5862 5861 5860 5860 5860 5859 5858 5858 5857 5857 5856 5856 5855 5854 5854 5854 5854 5852 5852 5851 5849 5847 5846 5845 5844 5844 5845 5845 5843 5842 5842 5842 5841 5841 5840 5840 5839 5839 5838 5838 5838 5838 5838 5838 5838 5839 5840 5841 5841 5840 5840 5840 5840 5840 5840 5840 5839 5839 5839 5838 5837 5837 5836 5836 5836 5835 5835 5835 5835 5834 5834 5834
5855 5857 5858 5859 5860 5861 5861 5861 5861 5862 5862 5862 5861 5860 5859 5858 5858 5858 5858 5857 5856 5856 5856 5855 5855 5854 5854 5853 5853 5853 5851 5850 5849 5848 5846 5844 5843 5842 5842 5843 5843 5843 5841 5840 5840 5840 5839 5838 5838 5838 5838 5837 5836 5836 5836 5836 5837 5837 5838 5839 5840 5840 5839 5838 5839 5839 5839 5839 5838 5838 5838 5837 5837 5836 5835 5835 5835 5834 5834 5833 5833 5833 5833 5833 5832
5854 5856 5856 5857 5858 5859 5859 5859 5859 5860 5860 5860 5859 5858 5857 5857 5857 5856 5856 5855 5855 5855 5855 5854 5853 5852 5852 5852 5852 5851 5850 5849 5848 5846 5844 5842 5841 5840 5841 5840 5841 5841 5840 5839 5838 5838 5838 5837 5837 5837 5837 5836 5835 5834 5834 5835 5835 5836 5836 5837 5838 5838 5837 5837 5837 5838 5837 5837 5837 5836 5836 5836 5835 5835 5834 5834 5833 5833 5832 5832 5832 5832 5832 5831 5831
5853 5854 5854 5855 5856 5857 5857 5857 5857 5858 5859 5858 5857 5856 5855 5855 5855 5855 5854 5854 5854 5853 5853 5852 5851 5851 5851 5850 5850 5849 5848 5848 5846 5845 5843 5841 5840 5839 5839 5839 5838 5838 5838 5837 5836 5836 5836 5835 5835 5835 5836 5835 5834 5834 5833 5833 5834 5835 5835 5836 5837 5837 5836 5835 5835 5836 5836 5836 5835 5835 5835 5834 5834 5833 5833 5832 5832 5832 5831 5831 5830 5830 5830 5830 5830
5851 5852 5853 5853 5854 5855 5855 5855 5856 5856 5857 5856 5854 5854 5853 5853 5854 5854 5853 5853 5852 5851 5851 5850 5850 5850 5850 5849 5848 5848 5847 5846 5845 5844 5843 5840 5838 5837 5836 5837 5837 5836 5835 5835 5835 5835 5834 5834 5833 5834 5834 5834 5833 5833 5832 5832 5833 5834 5834 5834 5836 5836 5835 5835 5834 5834 5834 5834 5834 5834 5834 5833 5832 5832 5832 5831 5831 5831 5830 5830 5829 5829 5829 5829 5828
5849 5850 5850 5851 5852 5853 5853 5854 5854 5855 5855 5854 5853 5852 5851 5852 5852 5852 5852 5851 5850 5850 5849 5849 5849 5849 5849 5848 5847 5846 5846 5845 5845 5844 5842 5839 5837 5836 5835 5835 5835 5834 5833 5832 5832 5833 5833 5832 5832 5832 5832 5832 5832 5832 5831 5830 5831 5832 5833 5833 5834 5835 5835 5834 5833 5832 5833 5833 5833 5832 5832 5831 5831 5830 5830 5830 5830 5829 5829 5828 5828 5828 5828 5827 5827
5847 5848 5848 5849 5850 5851 5851 5852 5852 5853 5853 5852 5851 5850 5850 5850 5850 5850 5850 5850 5849 5848 5848 5847 5847 5847 5847 5847 5846 5845 5845 5844 5844 5843 5841 5838 5836 5835 5834 5833 5833 5832 5831 5831 5831 5830 5830 5830 5830 5830 5830 5830 5830 5830 5830 5829 5830 5831 5831 5831 5833 5834 5834 5834 5833 5831 5831 5832 5832 5831 5831 5830 5830 5829 5829 5829 5828 5828 5828 5827 5827 5827 5826 5826 5826
5845 5846 5846 5847 5848 5848 5849 5849 5850 5852 5852 5851 5850 5849 5848 5848 5848 5848 5849 5849 5848 5847 5847 5846 5846 5846 5845 5845 5844 5844 5844 5843 5842 5841 5839 5837 5835 5834 5833 5832 5831 5830 5830 5829 5829 5829 5828 5828 5828 5828 5828 5828 5828 5828 5828 5828 5828 5829 5830 5830 5831 5832 5832 5832 5832 5831 5830 5831 5830 5830 5829 5829 5828 5828 5828 5828 5827 5827 5827 5827 5826 5826 5825 5825 5825
5844 5844 5845 5845 5846 5847 5847 5847 5848 5849 5849 5849 5848 5847 5847 5847 5847 5847 5847 5847 5847 5846 5846 5846 5845 5845 5844 5843 5843 5843 5842 5841 5840 5839 5837 5835 5833 5832 5831 5830 5829 5829 5828 5828 5828 5827 5826 5826 5826 5825 5826 5826 5826 5826 5826 5826 5827 5827 5828 5828 5829 5830 5830 5831 5831 5830 5830 5829 5829 5829 5828 5828 5827 5827 5827 5827 5827 5826 5826 5826 5825 5825 5825 5824 5824
5842 5842 5843 5844 5844 5845 5845 5845 5846 5847 5847 5846 5846 5846 5846 5845 5845 5845 5846 5845 5845 5844 5844 5844 5843 5843 5843 5842 5842 5841 5841 5839 5838 5836 5835 5833 5831 5830 5829 5828 5827 5827 5826 5825 5826 5825 5824 5824 5823 5822 5823 5824 5824 5823 5823 5825 5825 5826 5827 5827 5827 5828 5829 5830 5830 5830 5830 5829 5829 5828 5827 5827 5827 5826 5826 5826 5826 5826 5825 5825 5825 5824 5824 5824 5823
5841 5841 5841 5842 5843 5843 5843 5843 5844 5844 5844 5844 5844 5844 5844 5844 5843 5843 5844 5844 5843 5843 5842 5842 5841 5841 5841 5840 5840 5839 5838 5837 5836 5835 5833 5831 5830 5829 5828 5827 5826 5825 5824 5822 5823 5823 5822 5821 5820 5820 5820 5821 5821 5821 5821 5822 5823 5823 5825 5826 5826 5826 5826 5828 5830 5830 5829 5829 5828 5827 5827 5827 5826 5826 5825 5825 5825 5825 5825 5824 5824 5824 5823 5823 5823
5839 5840 5840 5841 5841 5841 5841 5841 5841 5842 5842 5842 5842 5842 5842 5842 5842 5842 5842 5842 5841 5841 5841 5840 5839 5839 5839 5838 5838 5837 5836 5835 5834 5833 5831 5829 5828 5827 5827 5826 5825 5824 5822 5820 5819 5819 5819 5819 5819 5818 5818 5819 5819 5819 5819 5819 5819 5821 5822 5824 5824 5824 5824 5826 5829 5829 5829 5828 5827 5826 5826 5826 5826 5825 5825 5825 5825 5824 5824 5824 5823 5823 5823 5822 5822
5838 5839 5839 5840 5840 5840 5840 5839 5839 5840 5840 5839 5839 5839 5840 5841 5841 5841 5841 5840 5838 5838 5839 5839 5837 5837 5836 5836 5835 5835 5834 5833 5831 5830 5829 5828 5827 5827 5826 5825 5824 5823 5821 5819 5817 5816 5816 5816 5816 5816 5816 5816 5816 5817 5817 5817 5818 5818 5820 5822 5821 5822 5823 5824 5826 5827 5828 5827 5826 5826 5825 5825 5825 5824 5824 5823 5823 5823 5823 5823 5822 5822 5822 5822 5821
5837 5837 5838 5838 5838 5838 5838 5837 5837 5837 5837 5837 5836 5836 5837 5839 5839 5840 5839 5837 5836 5835 5836 5837 5836 5836 5835 5834 5833 5832 5831 5830 5829 5828 5827 5827 5826 5825 5825 5824 5822 5821 5819 5817 5815 5814 5814 5813 5813 5813 5813 5813 5814 5814 5814 5815 5816 5817 5818 5819 5818 5819 5820 5821 5823 5825 5826 5826 5825 5825 5824 5824 5824 5823 5823 5822 5822 5822 5822 5822 5821 5821 5821 5821 5820
5836 5836 5836 5836 5836 5836 5836 5835 5835 5835 5835 5834 5834 5835 5835 5836 5837 5838 5837 5835 5834 5833 5833 5834 5834 5834 5833 5832 5830 5829 5828 5827 5826 5826 5825 5825 5824 5823 5821 5821 5819 5818 5816 5815 5813 5812 5811 5811 5811 5811 5811 5811 5811 5812 5812 5813 5814 5815 5816 5817 5817 5817 5818 5819 5822 5823 5823 5824 5824 5824 5823 5823 5822 5822 5822 5821 5821 5821 5821 5821 5820 5820 5820 5820 5820
5834 5834 5834 5834 5834 5834 5834 5834 5834 5833 5833 5833 5833 5833 5833 5833 5833 5835 5834 5833 5832 5830 5830 5830 5830 5830 5830 5829 5827 5826 5825 5824 5823 5823 5822 5822 5822 5820 5818 5816 5815 5814 5813 5812 5811 5810 5809 5809 5809 5809 5809 5808 5808 5809 5810 5810 5811 5812 5814 5815 5815 5815 5815 5817 5819 5820 5820 5821 5822 5822 5822 5822 5822 5821 5820 5820 5820 5820 5820 5820 5819 5819 5819 5819 5819
5833 5832 5832 5833 5833 5833 5833 5833 5833 5832 5832 5831 5831 5830 5829 5829 5829 5831 5831 5831 5829 5828 5827 5826 5826 5825 5825 5825 5825 5824 5823 5821 5820 5820 5819 5818 5818 5818 5816 5814 5812 5811 5811 5810 5809 5808 5807 5807 5807 5807 5806 5805 5805 5807 5807 5808 5809 5810 5811 5812 5813 5814 5814 5814 5815 5816 5818 5819 5819 5819 5820 5821 5821 5820 5819 5819 5819 5819 5819 5819 5818 5818 5818 5818 5818
5831 5831 5831 5831 5831 5831 5831 5831 5831 5831 5830 5829 5828 5827 5827 5826 5826 5827 5828 5828 5827 5826 5825 5824 5823 5822 5821 5822 5822 5821 5821 5819 5818 5816 5816 5814 5814 5814 5814 5812 5811 5810 5809 5808 5807 5806 5805 5804 5804 5804 5803 5803 5803 5803 5804 5805 5806 5807 5808 5810 5811 5812 5812 5812 5813 5814 5815 5816 5817 5817 5818 5819 5820 5819 5818 5818 5818 5818 5818 5818 5817 5817 5817 5817 5817
5829 5829 5829 5830 5830 5830 5830 5829 5829 5829 5828 5827 5826 5825 5825 5824 5824 5825 5825 5826 5825 5824 5823 5822 5821 5821 5820 5819 5819 5818 5817 5816 5815 5813 5812 5811 5809 5808 5808 5808 5807 5806 5806 5806 5804 5804 5803 5802 5802 5801 5801 5800 5800 5800 5801 5802 5803 5804 5806 5807 5809 5810 5810 5810 5811 5812 5813 5813 5814 5815 5816 5817 5818 5817 5817 5817 5817 5817 5817 5816 5816 5816 5816 5816 5815
5827 5827 5828 5828 5828 5828 5828 5828 5828 5827 5827 5826 5825 5824 5823 5823 5823 5823 5823 5823 5823 5823 5822 5821 5820 5819 5818 5817 5816 5815 5814 5813 5812 5810 5809 5808 5806 5804 5803 5803 5803 5802 5802 5802 5801 5800 5800 5799 5798 5798 5798 5797 5797 5797 5798 5800 5801 5802 5803 5804 5806 5807 5807 5808 5810 5811 5811 5811 5812 5813 5815 5816 5816 5816 5816 5815 5815 5816 5816 5815 5815 5815 5815 5815 5814
5825 5825 5826 5826 5826 5826 5827 5826 5826 5826 5825 5824 5823 5823 5822 5821 5821 5821 5821 5821 5820 5820 5819 5818 5818 5817 5816 5815 5813 5812 5811 5810 5809 5808 5806 5804 5803 5801 5800 5799 5798 5797 5797 5797 5797 5797 5796 5795 5795 5794 5794 5794 5795 5795 5796 5797 5798 5799 5800 5802 5804 5805 5805 5806 5807 5808 5809 5809 5810 5811 5813 5813 5814 5814 5814 5814 5814 5814 5814 5814 5814 5813 5814 5814 5813
5823 5824 5824 5825 5825 5825 5825 5825 5825 5824 5824 5823 5822 5821 5820 5819 5819 5819 5819 5818 5818 5817 5817 5816 5815 5815 5814 5812 5811 5810 5809 5808 5807 5805 5803 5801 5798 5797 5796 5794 5793 5793 5792 5792 5792 5792 5792 5792 5791 5791 5790 5791 5792 5793 5793 5794 5794 5796 5797 5799 5801 5802 5802 5803 5804 5806 5807 5807 5808 5809 5811 5811 5811 5812 5812 5812 5812 5812 5812 5812 5812 5812 5812 5812 5812
5822 5822 5823 5823 5823 5823 5823 5823 5823 5823 5822 5821 5820 5819 5818 5818 5817 5816 5816 5816 5815 5815 5814 5813 5813 5812 5811 5810 5809 5808 5806 5805 5804 5802 5799 5796 5793 5792 5791 5790 5789 5788 5788 5788 5788 5788 5788 5788 5788 5787 5786 5787 5788 5789 5790 5790 5791 5792 5794 5795 5797 5798 5799 5801 5803 5804 5804 5805 5805 5807 5808 5809 5809 5810 5810 5810 5810 5810 5811 5811 5811 5811 5811 5811 5811
5820 5821 5821 5821 5821 5822 5822 5822 5821 5821 5820 5819 5818 5817 5817 5816 5815 5814 5813 5813 5812 5812 5811 5811 5810 5810 5809 5808 5807 5806 5804 5802 5800 5797 5794 5792 5790 5790 5789 5788 5787 5786 5785 5784 5784 5784 5784 5785 5785 5784 5783 5784 5785 5786 5786 5787 5788 5790 5791 5792 5794 5795 5796 5798 5800 5801 5802 5803 5803 5804 5805 5807 5807 5808 5808 5808 5808 5809 5809 5809 5809 5809 5809 5809 5809
5818 5819 5819 5819 5820 5820 5820 5820 5819 5819 5818 5817 5816 5815 5815 5814 5813 5812 5811 5810 5810 5809 5809 5808 5808 5807 5806 5806 5805 5804 5802 5799 5796 5793 5790 5790 5790 5789 5788 5786 5785 5785 5784 5783 5781 5781 5781 5782 5782 5782 5781 5781 5782 5783 5783 5784 5785 5786 5788 5790 5791 5792 5794 5796 5797 5798 5800 5800 5801 5801 5802 5804 5805 5806 5806 5805 5806 5807 5807 5808 5808 5808 5808 5808 5808
5816 5817 5817 5818 5818 5818 5818 5818 5817 5817 5816 5815 5814 5813 5812 5812 5811 5810 5809 5808 5807 5807 5806 5805 5805 5804 5803 5803 5802 5801 5799 5796 5793 5791 5789 5788 5787 5787 5787 5786 5785 5783 5782 5781 5780 5779 5778 5779 5779 5779 5778 5779 5780 5780 5781 5781 5782 5784 5786 5788 5789 5790 5791 5793 5794 5796 5797 5798 5798 5799 5800 5801 5802 5803 5804 5803 5804 5804 5805 5805 5806 5806 5806 5806 5806
5814 5815 5815 5816 5816 5816 5816 5815 5815 5814 5814 5813 5812 5811 5810 5809 5809 5808 5807 5806 5805 5804 5803 5802 5802 5801 5800 5799 5799 5798 5796 5793 5790 5788 5787 5785 5784 5783 5784 5783 5782 5780 5778 5778 5777 5777 5776 5776 5776 5776 5776 5776 5778 5778 5779 5779 5780 5782 5784 5786 5787 5788 5789 5791 5792 5793 5795 5796 5796 5797 5798 5799 5800 5801 5801 5801 5801 5802 5802 5803 5803 5804 5804 5804 5804
5812 5813 5813 5814 5813 5813 5813 5813 5812 5812 5811 5810 5809 5809 5808 5807 5806 5805 5805 5803 5802 5801 5800 5799 5798 5798 5797 5796 5795 5794 5793 5790 5786 5784 5783 5781 5779 5779 5779 5778 5777 5776 5775 5776 5776 5775 5773 5772 5773 5773 5773 5774 5775 5776 5777 5778 5779 5780 5782 5783 5785 5786 5788 5789 5790 5791 5793 5793 5794 5795 5795 5796 5797 5799 5799 5799 5799 5799 5800 5800 5801 5801 5802 5802 5802